Regional Weather Roundup
Issued by NWS Northern Indiana

Home | Current Version | Previous Version | Graphics & Text | Print | Product List | Glossary On
Versions: 1 2 3 4 5 6 7 8 9 10 11 12 13 14 15 16 17 18 19 20 21 22 23 24 25 26 27 28 29 30 31 32 33 34 35 36 37 38 39 40 41 42 43 44 45 46 47 48 49 50
000
ASUS43 KIWX 070710
RWRIWX

KIWX WEATHER ROUNDUP
NATIONAL WEATHER SERVICE NORTHERN INDIANA
200 AM EST WED DEC 07 2016

NOTE: "FAIR" INDICATES FEW OR NO CLOUDS BELOW 12,000 FEET WITH NO
SIGNIFICANT WEATHER AND/OR OBSTRUCTIONS TO VISIBILITY.

* THESE STATIONS ARE NOT UNDER NWS QUALITY CONTROL. THEY ALSO MAY NOT
  REPORT WEATHER SUCH AS PRECIPITATION OR FOG.

INZ001>027-070800-
NORTHERN INDIANA

CITY           SKY/WX    TMP DP  RH WIND       PRES   REMARKS
GARY*          CLOUDY    30  21  69 W12G18    30.03R WCI  21
VALPARAISO     PTCLDY    28  19  69 W17       30.02R WCI  16
MICHIGAN CITY* CLOUDY    30  21  69 SW13G18   30.01R WCI  20
LAPORTE*       PTCLDY    29  26  86 W14       30.01R WCI  18
KNOX*          MOCLDY    28   5  37 W15G23    30.02R WCI  17
SOUTH BEND     MOCLDY    27  21  78 W17       29.99R WCI  14
GOSHEN         PTCLDY    28  20  71 W16       29.99R WCI  16
MONTICELLO*    PTCLDY    29  18  63 W10       30.04R WCI  20
LOGANSPORT*    CLEAR     28  21  74 W9        30.05R WCI  20
ROCHESTER*     CLEAR     32  27  80 W12       30.02R WCI  23
WARSAW*        PTCLDY    28  19  69 W13       30.00R WCI  18
ANGOLA*        CLOUDY    28  25  86 W9        29.94R WCI  20
FORT WAYNE     PTCLDY    29  23  78 W17G23    30.00R WCI  17
HUNTINGTON*    CLEAR     28  22  77 W10G17    30.01R WCI  19
PERU/GRISSOM   CLEAR     28  22  76 W13       30.03R WCI  17
MARION*        LGT SNOW  29  24  81 W16       30.04R VSB 3/4 WCI  17

$$
INZ028>050-070800-
CENTRAL INDIANA

CITY           SKY/WX    TMP DP  RH WIND       PRES   REMARKS
LAFAYETTE      CLEAR     29  21  72 W10       30.06R WCI  20
KOKOMO*        PTCLDY    29  23  78 W14       30.05R WCI  18
MUNCIE*        CLEAR     31  25  78 W12       30.03R WCI  22
INDIANAPOLIS   PTCLDY    28  24  85 W8        30.06R WCI  20

$$
MIZ043>046-050>051-056>058-064>065-071>073-077>080-070800-
SOUTHWEST LOWER MICHIGAN

CITY           SKY/WX    TMP DP  RH WIND       PRES   REMARKS
BATTLE CREEK   CLOUDY    31  23  72 W15G26    29.91R WCI  20
BENTON HARBOR  CLOUDY    32  22  66 W24G35    29.96R WCI  19
COLDWATER*     CLOUDY    31  24  77 W16       29.92R WCI  20
HILLSDALE*     CLOUDY    30  23  74 W17G23    29.89R WCI  18
HOLLAND        CLOUDY    33  24  69 W18       29.91R WCI  22
GRAND RAPIDS   CLOUDY    31  22  69 W14       29.89R WCI  21
KALAMAZOO      CLOUDY    32  22  66 W12       29.92R WCI  23
STURGIS*       CLOUDY    30  23  77 W15G24    29.94R WCI  19
THREE RIVERS*  CLOUDY    31  23  72 W15G30    29.95R WCI  20

$$
OHZ001>008-015>018-024>025-070800-
NORTHWEST OHIO

CITY           SKY/WX    TMP DP  RH WIND       PRES   REMARKS
WAUSEON*       CLOUDY    32  27  80 W16G22    29.93R WCI  21
DEFIANCE       CLEAR     31  23  72 SW7       29.97R WCI  24
FINDLAY        CLEAR     32  25  75 W17       29.95R WCI  21
TOLEDO EXPRESS MOCLDY    31  29  92 W18       29.93R WCI  19
TOLEDO METCALF CLEAR     33  29  85 W15       29.94R WCI  23
LIMA           CLEAR     30  25  81 W16G26    29.98R WCI  19

$$
AND FOR LAKE MICHIGAN COASTAL AND OPEN LAKE BUOY OBSERVATIONS

STATION/POSITION TEMP    WIND        PRES    VSBY  WAVE
                 AIR SEA DIR/SP/G                  HT/PER
                 (F)     (DEG/KT/KT) (MB)    (MI)  (FT/S)
CALUMET HARBOR    28     240/ 10/ 16 1015.6R
MICHIGAN CITY     31     230/ 33/ 36   N/A
BURNS HARBOR      31     250/ 19/ 25 1016.6R
SAINT JOSEPH      34     240/ 23/ 27 1015.2

$$
&&




USA.gov is the U.S. government's official web portal to all federal, state and local government web resources and services.